This is the latest recevied weather packets stored in our database for station/object DC8RAI-12. If no packets are shown the sender has not sent any weather packets the latest 10 day(s).
| Time | Temp. | Humidity | Pressure | Rain* | Wind** | Luminosity | Snow |
|---|---|---|---|---|---|---|---|
| 1777641294 | 23.33° C | 23% | 1024.8 hPa | - | - | - | - |
| 1777640392 | 22.78° C | 24% | 1025.1 hPa | - | - | - | - |
| 1777639496 | 24.44° C | 24% | 1025.2 hPa | - | - | - | - |
| 1777638596 | 22.78° C | 23% | 1025.3 hPa | - | - | - | - |
| 1777637696 | 23.89° C | 22% | 1025.4 hPa | - | - | - | - |
| 1777636796 | 23.89° C | 27% | 1025.4 hPa | - | - | - | - |
| 1777635896 | 23.89° C | 28% | 1025.6 hPa | - | - | - | - |
| 1777634996 | 22.22° C | 24% | 1025.8 hPa | - | - | - | - |
| 1777634096 | 21.67° C | 26% | 1026 hPa | - | - | - | - |
| 1777633196 | 21.67° C | 23% | 1026.1 hPa | - | - | - | - |
| 1777632296 | 20.56° C | 24% | 1026.3 hPa | - | - | - | - |
| 1777631395 | 21.11° C | 24% | 1026.4 hPa | - | - | - | - |
| 1777630495 | 20.56° C | 25% | 1026.4 hPa | - | - | - | - |
| 1777629595 | 19.44° C | 25% | 1026.6 hPa | - | - | - | - |
| 1777628695 | 17.22° C | 27% | 1026.7 hPa | - | - | - | - |
| 1777627795 | 16.67° C | 27% | 1026.9 hPa | - | - | - | - |
| 1777626895 | 15.56° C | 32% | 1026.9 hPa | - | - | - | - |
| 1777625995 | 14.44° C | 35% | 1027.1 hPa | - | - | - | - |
| 1777625095 | 13.89° C | 35% | 1027.2 hPa | - | - | - | - |
| 1777624195 | 12.78° C | 36% | 1027.3 hPa | - | - | - | - |
| 1777623295 | 12.78° C | 43% | 1027.3 hPa | - | - | - | - |
| 1777622394 | 11.67° C | 42% | 1027.4 hPa | - | - | - | - |
| 1777621494 | 11.11° C | 45% | 1027.3 hPa | - | - | - | - |
| 1777620594 | 10° C | 44% | 1027.4 hPa | - | - | - | - |
| 1777619694 | 8.89° C | 46% | 1027.3 hPa | - | - | - | - |
* Rain since midnight (hover to see other rain measurements)
** Current wind speed in m/s (hover to see current wind gust speed)